Location: Newark
(37.3167°N, 13.4667°E)
Time: 03:06:44
(UTC+00:00)

Envisat - Pass Details

Date: 21 July 2019
Orbit: 764 x 766 km, 98.1° (Epoch: 21 August)

Event Time Altitude Azimuth Distance (km) Brightness Sun altitude
Rises 18:45:20 0° 211° (SSW) 3,219 6.3 -4.7°
Reaches altitude 10° 18:48:40 10° 235° (SW) 2,299 5.8 -5.3°
Maximum altitude 18:51:27 15° 268° (W) 1,991 6.1 -5.8°
Drops below altitude 10° 18:54:15 10° 302° (WNW) 2,307 7.4 -6.2°
Sets 18:57:38 0° 326° (NW) 3,238 7.7 -6.8°
